| time (UTC) | temp F | wind direction | speed MPH | gust MPH | rain 1hr in | rain 24hr in | rain mn in | humidity % | barometer mb |
| 20260906215407 | 90 | 106 | 0.0 | 3.0 | 0.00 | 0.00 | 0.00 | 34 | 1018.9 |
| 20260906214906 | 91 | 98 | 3.0 | 5.0 | 0.00 | 0.00 | 0.00 | 31 | 1018.9 |
| 20260906214559 | 0 | 0.0 | 0.0 | 0.00 | 0.00 | 0.00 | 1016.6 | ||
| 20260906214404 | 91 | 53 | 0.0 | 2.0 | 0.00 | 0.00 | 0.00 | 33 | 1018.9 |
| 20260906213859 | 91 | 33 | 2.0 | 4.0 | 0.00 | 0.00 | 0.00 | 34 | 1019.2 |
| 20260906213359 | 91 | 50 | 3.0 | 7.0 | 0.00 | 0.00 | 0.00 | 32 | 1019.3 |
| 20260906213102 | 0 | 0.0 | 0.0 | 0.00 | 0.00 | 0.00 | 1016.8 | ||
| 20260906212856 | 91 | 53 | 0.0 | 4.0 | 0.00 | 0.00 | 0.00 | 33 | 1019.4 |
| 20260906212352 | 91 | 64 | 2.0 | 2.0 | 0.00 | 0.00 | 0.00 | 33 | 1019.3 |
| 20260906211851 | 90 | 57 | 3.0 | 4.0 | 0.00 | 0.00 | 0.00 | 34 | 1019.4 |
| 20260906211607 | 0 | 0.0 | 0.0 | 0.00 | 0.00 | 0.00 | 1016.9 | ||
| 20260906211347 | 91 | 68 | 2.0 | 4.0 | 0.00 | 0.00 | 0.00 | 32 | 1019.4 |
| 20260906210842 | 90 | 39 | 4.0 | 6.0 | 0.00 | 0.00 | 0.00 | 34 | 1019.4 |
| 20260906210337 | 90 | 60 | 3.0 | 5.0 | 0.00 | 0.00 | 0.00 | 33 | 1019.5 |
| 20260906210100 | 0 | 0.0 | 0.0 | 0.00 | 0.00 | 0.00 | 1017.1 | ||
| 20260906205832 | 91 | 51 | 2.0 | 3.0 | 0.00 | 0.00 | 0.00 | 32 | 1019.8 |
| 20260906205328 | 91 | 313 | 2.0 | 5.0 | 0.00 | 0.00 | 0.00 | 34 | 1019.6 |
| 20260906204824 | 90 | 18 | 2.0 | 3.0 | 0.00 | 0.00 | 0.00 | 35 | 1019.6 |
| 20260906204608 | 0 | 0.0 | 0.0 | 0.00 | 0.00 | 0.00 | 1017.3 | ||
| 20260906204323 | 90 | 96 | 1.0 | 4.0 | 0.00 | 0.00 | 0.00 | 34 | 1019.8 |
| 20260906203822 | 91 | 19 | 0.0 | 2.0 | 0.00 | 0.00 | 0.00 | 35 | 1019.9 |
| 20260906203318 | 90 | 28 | 3.0 | 3.0 | 0.00 | 0.00 | 0.00 | 34 | 1019.9 |
| 20260906203101 | 0 | 0.0 | 0.0 | 0.00 | 0.00 | 0.00 | 1017.5 | ||
| 20260906202815 | 90 | 238 | 0.0 | 2.0 | 0.00 | 0.00 | 0.00 | 36 | 1020.0 |
| 20260906202314 | 90 | 75 | 2.0 | 3.0 | 0.00 | 0.00 | 0.00 | 32 | 1020.0 |
| 20260906201809 | 88 | 35 | 2.0 | 3.0 | 0.00 | 0.00 | 0.00 | 35 | 1020.1 |
| 20260906201612 | 0 | 0.0 | 0.0 | 0.00 | 0.00 | 0.00 | 1017.7 | ||
| 20260906201308 | 88 | 24 | 2.0 | 5.0 | 0.00 | 0.00 | 0.00 | 34 | 1020.5 |
| 20260906200804 | 88 | 33 | 2.0 | 4.0 | 0.00 | 0.00 | 0.00 | 39 | 1020.3 |
| 20260906200300 | 88 | 98 | 0.0 | 5.0 | 0.00 | 0.00 | 0.00 | 35 | 1020.3 |
| 20260906200057 | 0 | 0.0 | 0.0 | 0.00 | 0.00 | 0.00 | 1017.8 | ||
| 20260906195755 | 86 | 43 | 1.0 | 4.0 | 0.00 | 0.00 | 0.00 | 35 | 1020.6 |
| 20260906195251 | 87 | 30 | 2.0 | 3.0 | 0.00 | 0.00 | 0.00 | 36 | 1020.2 |
| 20260906194747 | 86 | 78 | 2.0 | 5.0 | 0.00 | 0.00 | 0.00 | 35 | 1020.6 |
| 20260906194557 | 0 | 0.0 | 0.0 | 0.00 | 0.00 | 0.00 | 1018.1 | ||
| 20260906194243 | 87 | 19 | 0.0 | 2.0 | 0.00 | 0.00 | 0.00 | 36 | 1020.5 |
| 20260906193742 | 86 | 29 | 2.0 | 3.0 | 0.00 | 0.00 | 0.00 | 37 | 1020.8 |
| 20260906193237 | 86 | 162 | 0.0 | 2.0 | 0.00 | 0.00 | 0.00 | 37 | 1020.8 |
| 20260906193053 | 0 | 0.0 | 0.0 | 0.00 | 0.00 | 0.00 | 1018.4 | ||
| 20260906192734 | 86 | 37 | 1.0 | 3.0 | 0.00 | 0.00 | 0.00 | 37 | 1021.0 |
| 20260906192228 | 85 | 54 | 3.0 | 3.0 | 0.00 | 0.00 | 0.00 | 36 | 1021.0 |
| 20260906191727 | 85 | 293 | 0.0 | 2.0 | 0.00 | 0.00 | 0.00 | 39 | 1021.0 |
| 20260906191602 | 0 | 0.0 | 0.0 | 0.00 | 0.00 | 0.00 | 1018.7 | ||
| 20260906191222 | 86 | 16 | 1.0 | 3.0 | 0.00 | 0.00 | 0.00 | 35 | 1021.4 |
| 20260906190721 | 84 | 54 | 2.0 | 2.0 | 0.00 | 0.00 | 0.00 | 36 | 1021.5 |
| 20260906190216 | 84 | 62 | 1.0 | 3.0 | 0.00 | 0.00 | 0.00 | 36 | 1021.4 |
| 20260906190107 | 0 | 0.0 | 0.0 | 0.00 | 0.00 | 0.00 | 1018.9 | ||
| 20260906185715 | 84 | 53 | 4.0 | 4.0 | 0.00 | 0.00 | 0.00 | 36 | 1021.5 |
| 20260906185214 | 84 | 354 | 1.0 | 3.0 | 0.00 | 0.00 | 0.00 | 43 | 1021.6 |
| 20260906184709 | 84 | 340 | 1.0 | 2.0 | 0.00 | 0.00 | 0.00 | 42 | 1021.8 |
| 20260906184601 | 0 | 0.0 | 0.0 | 0.00 | 0.00 | 0.00 | 1019.3 | ||
| 20260906184204 | 84 | 48 | 3.0 | 3.0 | 0.00 | 0.00 | 0.00 | 40 | 1021.9 |
| 20260906183700 | 83 | 36 | 2.0 | 3.0 | 0.00 | 0.00 | 0.00 | 44 | 1021.9 |
| 20260906183156 | 83 | 36 | 1.0 | 3.0 | 0.00 | 0.00 | 0.00 | 44 | 1022.0 |
| 20260906183110 | 0 | 0.0 | 0.0 | 0.00 | 0.00 | 0.00 | 1019.6 | ||
| 20260906182656 | 82 | 15 | 1.0 | 2.0 | 0.00 | 0.00 | 0.00 | 41 | 1022.1 |
| 20260906182152 | 83 | 22 | 1.0 | 2.0 | 0.00 | 0.00 | 0.00 | 43 | 1022.2 |
| 20260906181647 | 82 | 7 | 1.0 | 3.0 | 0.00 | 0.00 | 0.00 | 45 | 1022.3 |
| 20260906181604 | 0 | 0.0 | 0.0 | 0.00 | 0.00 | 0.00 | 1019.9 | ||
| 20260906181143 | 81 | 356 | 1.0 | 2.0 | 0.00 | 0.00 | 0.00 | 46 | 1022.3 |
| 20260906180639 | 81 | 112 | 1.0 | 5.0 | 0.00 | 0.00 | 0.00 | 45 | 1022.6 |
| 20260906180138 | 80 | 61 | 1.0 | 2.0 | 0.00 | 0.00 | 0.00 | 45 | 1022.6 |
| 20260906180121 | 0 | 0.0 | 0.0 | 0.00 | 0.00 | 0.00 | 1020.3 | ||
| 20260906175637 | 80 | 65 | 2.0 | 2.0 | 0.00 | 0.00 | 0.00 | 45 | 1022.6 |
| 20260906175132 | 80 | 240 | 1.0 | 2.0 | 0.00 | 0.00 | 0.00 | 50 | 1022.8 |
| 20260906174630 | 80 | 56 | 2.0 | 2.0 | 0.00 | 0.00 | 0.00 | 46 | 1022.8 |
| 20260906174554 | 0 | 0.0 | 0.0 | 0.00 | 0.00 | 0.00 | 1020.6 | ||
| 20260906174125 | 79 | 67 | 2.0 | 3.0 | 0.00 | 0.00 | 0.00 | 47 | 1023.1 |
| 20260906173620 | 79 | 21 | 1.0 | 2.0 | 0.00 | 0.00 | 0.00 | 48 | 1023.2 |
| 20260906173116 | 79 | 49 | 0.0 | 2.0 | 0.00 | 0.00 | 0.00 | 49 | 1023.4 |
| 20260906173109 | 0 | 0.0 | 0.0 | 0.00 | 0.00 | 0.00 | 1020.9 | ||
| 20260906172615 | 79 | 318 | 0.0 | 2.0 | 0.00 | 0.00 | 0.00 | 48 | 1023.4 |
| 20260906172111 | 78 | 227 | 0.0 | 1.0 | 0.00 | 0.00 | 0.00 | 48 | 1023.3 |
| 20260906171610 | 77 | 231 | 1.0 | 2.0 | 0.00 | 0.00 | 0.00 | 51 | 1023.4 |
| 20260906171559 | 0 | 0.0 | 0.0 | 0.00 | 0.00 | 0.00 | 1021.1 | ||
| 20260906171106 | 77 | 348 | 0.0 | 3.0 | 0.00 | 0.00 | 0.00 | 52 | 1023.9 |
| 20260906170602 | 77 | 317 | 0.0 | 2.0 | 0.00 | 0.00 | 0.00 | 49 | 1023.8 |
| 20260906170117 | 0 | 0.0 | 0.0 | 0.00 | 0.00 | 0.00 | 1021.4 | ||
| 20260906165559 | 76 | 48 | 0.0 | 2.0 | 0.00 | 0.00 | 0.00 | 50 | 1023.8 |
| 20260906165059 | 75 | 53 | 1.0 | 2.0 | 0.00 | 0.00 | 0.00 | 52 | 1023.9 |
| 20260906164603 | 0 | 0.0 | 0.0 | 0.00 | 0.00 | 0.00 | 1021.4 | ||
| 20260906164558 | 75 | 22 | 0.0 | 2.0 | 0.00 | 0.00 | 0.00 | 51 | 1023.6 |
| 20260906164054 | 75 | 258 | 0.0 | 2.0 | 0.00 | 0.00 | 0.00 | 51 | 1024.0 |
| 20260906163549 | 74 | 42 | 1.0 | 2.0 | 0.00 | 0.00 | 0.00 | 57 | 1023.9 |
| 20260906163101 | 0 | 0.0 | 0.0 | 0.00 | 0.00 | 0.00 | 1021.6 | ||
| 20260906163045 | 74 | 62 | 2.0 | 2.0 | 0.00 | 0.00 | 0.00 | 56 | 1023.9 |
| 20260906162542 | 73 | 19 | 0.0 | 2.0 | 0.00 | 0.00 | 0.00 | 59 | 1024.1 |
| 20260906162037 | 72 | 50 | 0.0 | 1.0 | 0.00 | 0.00 | 0.00 | 61 | 1024.2 |
| 20260906161554 | 0 | 0.0 | 0.0 | 0.00 | 0.00 | 0.00 | 1021.6 | ||
| 20260906161532 | 72 | 300 | 1.0 | 2.0 | 0.00 | 0.00 | 0.00 | 61 | 1024.1 |
| 20260906161030 | 72 | 215 | 2.0 | 3.0 | 0.00 | 0.00 | 0.00 | 61 | 1024.0 |
| 20260906160530 | 71 | 221 | 0.0 | 2.0 | 0.00 | 0.00 | 0.00 | 65 | 1024.0 |
| 20260906160053 | 0 | 0.0 | 0.0 | 0.00 | 0.00 | 0.00 | 1021.7 | ||
| 20260906160029 | 71 | 239 | 2.0 | 2.0 | 0.00 | 0.00 | 0.00 | 65 | 1024.1 |
| 20260906155526 | 70 | 209 | 2.0 | 2.0 | 0.00 | 0.00 | 0.00 | 66 | 1024.0 |
| 20260906155022 | 70 | 36 | 0.0 | 2.0 | 0.00 | 0.00 | 0.00 | 64 | 1024.0 |
| 20260906154602 | 0 | 0.0 | 0.0 | 0.00 | 0.00 | 0.00 | 1021.6 | ||
| 20260906154518 | 69 | 280 | 0.0 | 2.0 | 0.00 | 0.00 | 0.00 | 65 | 1023.8 |
| 20260906154016 | 69 | 249 | 0.0 | 2.0 | 0.00 | 0.00 | 0.00 | 67 | 1024.0 |
| 20260906153516 | 69 | 5 | 0.0 | 2.0 | 0.00 | 0.00 | 0.00 | 69 | 1023.9 |
| 20260906153055 | 0 | 0.0 | 0.0 | 0.00 | 0.00 | 0.00 | 1021.8 | ||
| 20260906153011 | 69 | 19 | 0.0 | 1.0 | 0.00 | 0.00 | 0.00 | 69 | 1024.5 |
| 20260906152505 | 69 | 322 | 0.0 | 2.0 | 0.00 | 0.00 | 0.00 | 67 | 1024.1 |
| 20260906152004 | 68 | 76 | 0.0 | 1.0 | 0.00 | 0.00 | 0.00 | 69 | 1024.2 |
| 20260906151608 | 0 | 0.0 | 0.0 | 0.00 | 0.00 | 0.00 | 1022.0 | ||
| 20260906151500 | 68 | 202 | 0.0 | 2.0 | 0.00 | 0.00 | 0.00 | 69 | 1024.1 |
| 20260906150955 | 67 | 142 | 0.0 | 1.0 | 0.00 | 0.00 | 0.00 | 71 | 1024.2 |
| 20260906150450 | 67 | 293 | 0.0 | 2.0 | 0.00 | 0.00 | 0.00 | 69 | 1024.2 |
| 20260906150105 | 0 | 0.0 | 0.0 | 0.00 | 0.00 | 0.00 | 1022.0 | ||
| 20260906145949 | 67 | 241 | 0.0 | 2.0 | 0.00 | 0.00 | 0.00 | 69 | 1024.1 |
| 20260906145444 | 66 | 185 | 0.0 | 0.0 | 0.00 | 0.00 | 0.00 | 70 | 1024.2 |
| 20260906144944 | 66 | 42 | 1.0 | 3.0 | 0.00 | 0.00 | 0.00 | 70 | 1024.1 |
| 20260906144555 | 0 | 0.0 | 0.0 | 0.00 | 0.00 | 0.00 | 1021.9 | ||
| 20260906144439 | 66 | 222 | 2.0 | 2.0 | 0.00 | 0.00 | 0.00 | 70 | 1024.2 |
| 20260906143934 | 66 | 48 | 1.0 | 3.0 | 0.00 | 0.00 | 0.00 | 70 | 1024.0 |
| 20260906143429 | 66 | 160 | 0.0 | 2.0 | 0.00 | 0.00 | 0.00 | 69 | 1024.2 |
| 20260906143119 | 0 | 0.0 | 0.0 | 0.00 | 0.00 | 0.00 | 1021.9 | ||
| 20260906142925 | 65 | 142 | 0.0 | 3.0 | 0.00 | 0.00 | 0.00 | 72 | 1024.0 |
| 20260906142425 | 65 | 297 | 0.0 | 3.0 | 0.00 | 0.00 | 0.00 | 73 | 1024.1 |
| 20260906141920 | 64 | 215 | 0.0 | 1.0 | 0.00 | 0.00 | 0.00 | 75 | 1024.1 |
| 20260906141607 | 0 | 0.0 | 0.0 | 0.00 | 0.00 | 0.00 | 1022.0 | ||
| 20260906141420 | 64 | 51 | 2.0 | 2.0 | 0.00 | 0.00 | 0.00 | 77 | 1024.1 |
| 20260906140914 | 64 | 55 | 0.0 | 2.0 | 0.00 | 0.00 | 0.00 | 78 | 1024.5 |
| 20260906140409 | 63 | 62 | 2.0 | 2.0 | 0.00 | 0.00 | 0.00 | 80 | 1024.2 |
| 20260906140059 | 0 | 0.0 | 0.0 | 0.00 | 0.00 | 0.00 | 1022.1 | ||
| 20260906135907 | 63 | 243 | 0.0 | 2.0 | 0.00 | 0.00 | 0.00 | 80 | 1024.3 |
| 20260906135406 | 62 | 242 | 1.0 | 1.0 | 0.00 | 0.00 | 0.00 | 82 | 1024.2 |
| 20260906134902 | 62 | 223 | 0.0 | 2.0 | 0.00 | 0.00 | 0.00 | 82 | 1024.1 |
| 20260906134600 | 0 | 0.0 | 0.0 | 0.00 | 0.00 | 0.00 | 1021.9 | ||
| 20260906134357 | 61 | 89 | 0.0 | 0.0 | 0.00 | 0.00 | 0.00 | 83 | 1024.0 |
| 20260906133852 | 61 | 230 | 0.0 | 0.0 | 0.00 | 0.00 | 0.00 | 82 | 1024.0 |
| 20260906133348 | 61 | 49 | 0.0 | 1.0 | 0.00 | 0.00 | 0.00 | 82 | 1024.0 |
| 20260906133109 | 0 | 0.0 | 0.0 | 0.00 | 0.00 | 0.00 | 1021.8 | ||
| 20260906132843 | 60 | 37 | 0.0 | 0.0 | 0.00 | 0.00 | 0.00 | 81 | 1024.0 |
| 20260906132338 | 60 | 129 | 0.0 | 0.0 | 0.00 | 0.00 | 0.00 | 81 | 1024.0 |
| 20260906131834 | 59 | 129 | 0.0 | 0.0 | 0.00 | 0.00 | 0.00 | 83 | 1024.2 |
| 20260906131602 | 0 | 0.0 | 0.0 | 0.00 | 0.00 | 0.00 | 1021.8 | ||
| 20260906131329 | 58 | 89 | 0.0 | 1.0 | 0.00 | 0.00 | 0.00 | 83 | 1023.9 |
| 20260906130825 | 58 | 70 | 0.0 | 1.0 | 0.00 | 0.00 | 0.00 | 83 | 1023.6 |
| 20260906130324 | 58 | 59 | 0.0 | 1.0 | 0.00 | 0.00 | 0.00 | 83 | 1023.8 |
| 20260906130058 | 0 | 0.0 | 0.0 | 0.00 | 0.00 | 0.00 | 1021.4 | ||
| 20260906125823 | 58 | 66 | 0.0 | 2.0 | 0.00 | 0.00 | 0.00 | 83 | 1023.8 |
| 20260906125321 | 58 | 83 | 0.0 | 2.0 | 0.00 | 0.00 | 0.00 | 83 | 1023.8 |
| 20260906124816 | 58 | 66 | 0.0 | 1.0 | 0.00 | 0.00 | 0.00 | 82 | 1023.5 |
| 20260906124605 | 0 | 0.0 | 0.0 | 0.00 | 0.00 | 0.00 | 1021.1 | ||
| 20260906124312 | 58 | 118 | 0.0 | 1.0 | 0.00 | 0.00 | 0.00 | 82 | 1023.6 |
| 20260906123810 | 58 | 89 | 0.0 | 1.0 | 0.00 | 0.00 | 0.00 | 82 | 1023.5 |
| 20260906123306 | 58 | 55 | 0.0 | 2.0 | 0.00 | 0.00 | 0.00 | 81 | 1023.5 |
| 20260906123128 | 0 | 0.0 | 0.0 | 0.00 | 0.00 | 0.00 | 1020.9 | ||
| 20260906122805 | 58 | 87 | 0.0 | 1.0 | 0.00 | 0.00 | 0.00 | 81 | 1023.6 |
| 20260906122301 | 58 | 89 | 0.0 | 0.0 | 0.00 | 0.00 | 0.00 | 81 | 1023.5 |
| 20260906121757 | 58 | 63 | 0.0 | 1.0 | 0.00 | 0.00 | 0.00 | 80 | 1023.5 |
| 20260906121600 | 0 | 0.0 | 0.0 | 0.00 | 0.00 | 0.00 | 1021.1 | ||
| 20260906121253 | 58 | 53 | 0.0 | 2.0 | 0.00 | 0.00 | 0.00 | 81 | 1023.4 |
| 20260906120749 | 58 | 44 | 0.0 | 1.0 | 0.00 | 0.00 | 0.00 | 80 | 1023.3 |
| 20260906120245 | 59 | 101 | 1.0 | 2.0 | 0.00 | 0.00 | 0.00 | 80 | 1023.5 |
| 20260906120058 | 0 | 0.0 | 0.0 | 0.00 | 0.00 | 0.00 | 1021.0 | ||
| 20260906115741 | 59 | 106 | 0.0 | 1.0 | 0.00 | 0.00 | 0.00 | 80 | 1023.8 |
| 20260906115236 | 59 | 129 | 0.0 | 0.0 | 0.00 | 0.00 | 0.00 | 79 | 1023.3 |
| 20260906114734 | 59 | 57 | 0.0 | 1.0 | 0.00 | 0.00 | 0.00 | 79 | 1023.6 |
| 20260906114610 | 0 | 0.0 | 0.0 | 0.00 | 0.00 | 0.00 | 1021.3 | ||
| 20260906114230 | 59 | 69 | 0.0 | 2.0 | 0.00 | 0.00 | 0.00 | 79 | 1023.6 |
| 20260906113726 | 59 | 142 | 0.0 | 2.0 | 0.00 | 0.00 | 0.00 | 79 | 1023.5 |
| 20260906113225 | 59 | 124 | 0.0 | 1.0 | 0.00 | 0.00 | 0.00 | 79 | 1023.4 |
| 20260906113054 | 0 | 0.0 | 0.0 | 0.00 | 0.00 | 0.00 | 1021.2 | ||
| 20260906112724 | 59 | 66 | 0.0 | 2.0 | 0.00 | 0.00 | 0.00 | 79 | 1023.6 |
| 20260906112222 | 59 | 108 | 1.0 | 2.0 | 0.00 | 0.00 | 0.00 | 79 | 1023.5 |
| 20260906111721 | 59 | 66 | 0.0 | 1.0 | 0.00 | 0.00 | 0.00 | 79 | 1023.2 |
| 20260906111601 | 0 | 0.0 | 0.0 | 0.00 | 0.00 | 0.00 | 1021.0 | ||
| 20260906111215 | 60 | 142 | 0.0 | 1.0 | 0.00 | 0.00 | 0.00 | 80 | 1023.4 |
| 20260906110710 | 60 | 129 | 0.0 | 1.0 | 0.00 | 0.00 | 0.00 | 77 | 1023.4 |
| 20260906110206 | 60 | 89 | 0.0 | 2.0 | 0.00 | 0.00 | 0.00 | 76 | 1023.4 |
| 20260906110054 | 0 | 0.0 | 0.0 | 0.00 | 0.00 | 0.00 | 1020.9 | ||
| 20260906105705 | 60 | 89 | 0.0 | 2.0 | 0.00 | 0.00 | 0.00 | 76 | 1023.1 |
| 20260906105202 | 60 | 50 | 0.0 | 1.0 | 0.00 | 0.00 | 0.00 | 76 | 1023.2 |
| 20260906104701 | 60 | 58 | 2.0 | 2.0 | 0.00 | 0.00 | 0.00 | 75 | 1023.2 |
| 20260906104604 | 0 | 0.0 | 0.0 | 0.00 | 0.00 | 0.00 | 1020.7 | ||
| 20260906104200 | 61 | 173 | 0.0 | 0.0 | 0.00 | 0.00 | 0.00 | 74 | 1023.2 |
| 20260906103658 | 60 | 122 | 0.0 | 2.0 | 0.00 | 0.00 | 0.00 | 74 | 1023.1 |
| 20260906103154 | 61 | 141 | 0.0 | 0.0 | 0.00 | 0.00 | 0.00 | 74 | 1022.9 |
| 20260906103057 | 0 | 0.0 | 0.0 | 0.00 | 0.00 | 0.00 | 1020.6 | ||
| 20260906102649 | 61 | 47 | 1.0 | 1.0 | 0.00 | 0.00 | 0.00 | 74 | 1022.9 |
| 20260906102148 | 61 | 205 | 0.0 | 1.0 | 0.00 | 0.00 | 0.00 | 74 | 1022.9 |
| 20260906101648 | 61 | 59 | 1.0 | 2.0 | 0.00 | 0.00 | 0.00 | 74 | 1022.9 |
| 20260906101554 | 0 | 0.0 | 0.0 | 0.00 | 0.00 | 0.00 | 1020.5 | ||
| 20260906101143 | 61 | 83 | 0.0 | 1.0 | 0.00 | 0.00 | 0.00 | 73 | 1022.9 |
| 20260906100638 | 61 | 54 | 0.0 | 1.0 | 0.00 | 0.00 | 0.00 | 73 | 1022.9 |
| 20260906100134 | 61 | 103 | 0.0 | 1.0 | 0.00 | 0.00 | 0.00 | 72 | 1022.7 |
| 20260906100053 | 0 | 0.0 | 0.0 | 0.00 | 0.00 | 0.00 | 1020.4 | ||
| 20260906095634 | 62 | 70 | 1.0 | 2.0 | 0.00 | 0.00 | 0.00 | 72 | 1023.2 |
| 20260906095129 | 62 | 60 | 0.0 | 2.0 | 0.00 | 0.00 | 0.00 | 71 | 1022.9 |
| 20260906094628 | 62 | 84 | 1.0 | 1.0 | 0.00 | 0.00 | 0.00 | 71 | 1023.1 |
| 20260906094608 | 0 | 0.0 | 0.0 | 0.00 | 0.00 | 0.00 | 1020.6 | ||
| 20260906094124 | 62 | 29 | 0.0 | 1.0 | 0.00 | 0.00 | 0.00 | 70 | 1022.9 |
| 20260906093620 | 62 | 36 | 0.0 | 2.0 | 0.00 | 0.00 | 0.00 | 70 | 1022.8 |
| 20260906093120 | 62 | 246 | 0.0 | 0.0 | 0.00 | 0.00 | 0.00 | 70 | 1022.8 |
| 20260906093057 | 0 | 0.0 | 0.0 | 0.00 | 0.00 | 0.00 | 1020.5 | ||
| 20260906092615 | 62 | 55 | 0.0 | 1.0 | 0.00 | 0.00 | 0.00 | 70 | 1022.8 |
| 20260906092110 | 62 | 123 | 0.0 | 1.0 | 0.00 | 0.00 | 0.00 | 70 | 1022.9 |
| 20260906091606 | 62 | 113 | 0.0 | 1.0 | 0.00 | 0.00 | 0.00 | 70 | 1022.8 |
| 20260906091603 | 0 | 0.0 | 0.0 | 0.00 | 0.00 | 0.00 | 1020.4 | ||
| 20260906091103 | 62 | 89 | 0.0 | 1.0 | 0.00 | 0.00 | 0.00 | 69 | 1022.7 |
| 20260906090602 | 63 | 60 | 0.0 | 2.0 | 0.00 | 0.00 | 0.00 | 69 | 1022.7 |
| 20260906090054 | 0 | 0.0 | 0.0 | 0.00 | 0.00 | 0.00 | 1020.5 | ||
| 20260906085601 | 63 | 129 | 0.0 | 0.0 | 0.00 | 0.00 | 0.00 | 68 | 1022.8 |
| 20260906085056 | 63 | 315 | 0.0 | 0.0 | 0.00 | 0.00 | 0.00 | 67 | 1022.7 |
| 20260906084605 | 0 | 0.0 | 0.0 | 0.00 | 0.00 | 0.00 | 1020.2 | ||
| 20260906084551 | 64 | 55 | 0.0 | 0.0 | 0.00 | 0.00 | 0.00 | 67 | 1022.6 |
| 20260906084049 | 63 | 55 | 0.0 | 1.0 | 0.00 | 0.00 | 0.00 | 67 | 1022.6 |
| 20260906083545 | 64 | 48 | 0.0 | 1.0 | 0.00 | 0.00 | 0.00 | 67 | 1022.3 |
| 20260906083057 | 0 | 0.0 | 0.0 | 0.00 | 0.00 | 0.00 | 1020.2 | ||
| 20260906083045 | 64 | 61 | 1.0 | 2.0 | 0.00 | 0.00 | 0.00 | 67 | 1022.7 |
| 20260906082540 | 64 | 84 | 0.0 | 1.0 | 0.00 | 0.00 | 0.00 | 66 | 1022.7 |
| 20260906082036 | 64 | 103 | 0.0 | 1.0 | 0.00 | 0.00 | 0.00 | 66 | 1022.7 |
| 20260906081555 | 0 | 0.0 | 0.0 | 0.00 | 0.00 | 0.00 | 1020.4 | ||
| 20260906081532 | 64 | 110 | 0.0 | 2.0 | 0.00 | 0.00 | 0.00 | 65 | 1022.8 |
| 20260906081027 | 65 | 39 | 0.0 | 1.0 | 0.00 | 0.00 | 0.00 | 64 | 1022.8 |
| 20260906080523 | 65 | 113 | 0.0 | 1.0 | 0.00 | 0.00 | 0.00 | 64 | 1022.7 |
| 20260906080019 | 66 | 38 | 0.0 | 1.0 | 0.00 | 0.00 | 0.00 | 65 | 1022.8 |
| 20260906075513 | 66 | 58 | 0.0 | 1.0 | 0.00 | 0.00 | 0.00 | 63 | 1022.8 |
| 20260906075008 | 66 | 40 | 0.0 | 2.0 | 0.00 | 0.00 | 0.00 | 62 | 1022.5 |
| 20260906074607 | 0 | 0.0 | 0.0 | 0.00 | 0.00 | 0.00 | 1020.2 | ||
| 20260906074503 | 67 | 101 | 0.0 | 2.0 | 0.00 | 0.00 | 0.00 | 62 | 1022.7 |
| 20260906074001 | 67 | 50 | 0.0 | 2.0 | 0.00 | 0.00 | 0.00 | 60 | 1022.6 |
| 20260906073455 | 68 | 50 | 0.0 | 1.0 | 0.00 | 0.00 | 0.00 | 58 | 1022.3 |
| 20260906073059 | 0 | 0.0 | 0.0 | 0.00 | 0.00 | 0.00 | 1020.1 | ||
| 20260906072952 | 68 | 37 | 0.0 | 0.0 | 0.00 | 0.00 | 0.00 | 57 | 1022.7 |
| 20260906072447 | 69 | 95 | 0.0 | 1.0 | 0.00 | 0.00 | 0.00 | 56 | 1022.6 |
| 20260906071943 | 69 | 208 | 0.0 | 2.0 | 0.00 | 0.00 | 0.00 | 55 | 1022.3 |
| 20260906071556 | 0 | 0.0 | 0.0 | 0.00 | 0.00 | 0.00 | 1019.9 | ||
| 20260906071439 | 69 | 206 | 2.0 | 2.0 | 0.00 | 0.00 | 0.00 | 54 | 1022.5 |
| 20260906070935 | 69 | 136 | 1.0 | 3.0 | 0.00 | 0.00 | 0.00 | 54 | 1022.7 |
| 20260906070430 | 69 | 89 | 0.0 | 2.0 | 0.00 | 0.00 | 0.00 | 53 | 1022.6 |
| 20260906070104 | 0 | 0.0 | 0.0 | 0.00 | 0.00 | 0.00 | 1019.7 | ||
| 20260906065926 | 69 | 236 | 0.0 | 1.0 | 0.00 | 0.00 | 0.00 | 52 | 1022.5 |
| 20260906065420 | 69 | 157 | 0.0 | 0.0 | 0.00 | 0.00 | 0.00 | 52 | 1022.2 |
| 20260906064916 | 69 | 235 | 0.0 | 2.0 | 0.00 | 0.00 | 0.00 | 51 | 1022.2 |
| 20260906064556 | 0 | 0.0 | 0.0 | 0.00 | 0.00 | 0.00 | 1019.8 | ||
| 20260906064413 | 70 | 38 | 0.0 | 1.0 | 0.00 | 0.00 | 0.00 | 51 | 1022.5 |
| 20260906063912 | 70 | 135 | 0.0 | 0.0 | 0.00 | 0.00 | 0.00 | 50 | 1022.6 |
| 20260906063407 | 71 | 164 | 0.0 | 1.0 | 0.00 | 0.00 | 0.00 | 50 | 1022.5 |
| 20260906063059 | 0 | 0.0 | 0.0 | 0.00 | 0.00 | 0.00 | 1019.9 | ||
| 20260906062902 | 72 | 15 | 0.0 | 1.0 | 0.00 | 0.00 | 0.00 | 48 | 1022.5 |
| 20260906062401 | 71 | 39 | 0.0 | 2.0 | 0.00 | 0.00 | 0.00 | 48 | 1022.6 |
| 20260906061857 | 71 | 22 | 0.0 | 2.0 | 0.00 | 0.00 | 0.00 | 48 | 1022.7 |
| 20260906061607 | 0 | 0.0 | 0.0 | 0.00 | 0.00 | 0.00 | 1020.0 | ||
| 20260906061354 | 71 | 37 | 0.0 | 0.0 | 0.00 | 0.00 | 0.00 | 48 | 1022.8 |
| 20260906060848 | 72 | 322 | 0.0 | 2.0 | 0.00 | 0.00 | 0.00 | 47 | 1022.9 |
| 20260906060346 | 72 | 22 | 0.0 | 1.0 | 0.00 | 0.00 | 0.00 | 46 | 1023.2 |
| 20260906055841 | 72 | 44 | 0.0 | 0.0 | 0.00 | 0.00 | 0.00 | 47 | 1023.3 |
| 20260906055337 | 72 | 29 | 0.0 | 1.0 | 0.00 | 0.00 | 0.00 | 46 | 1022.9 |
| 20260906054832 | 73 | 48 | 1.0 | 1.0 | 0.00 | 0.00 | 0.00 | 45 | 1023.2 |
| 20260906054557 | 0 | 0.0 | 0.0 | 0.00 | 0.00 | 0.00 | 1020.5 | ||
| 20260906054327 | 72 | 106 | 0.0 | 1.0 | 0.00 | 0.00 | 0.00 | 46 | 1023.1 |
| 20260906053823 | 72 | 26 | 0.0 | 1.0 | 0.00 | 0.00 | 0.00 | 46 | 1023.1 |
| 20260906053319 | 72 | 212 | 2.0 | 2.0 | 0.00 | 0.00 | 0.00 | 45 | 1023.4 |
| 20260906053108 | 0 | 0.0 | 0.0 | 0.00 | 0.00 | 0.00 | 1020.7 | ||
| 20260906052814 | 73 | 62 | 0.0 | 1.0 | 0.00 | 0.00 | 0.00 | 45 | 1023.3 |
| 20260906052310 | 73 | 89 | 0.0 | 0.0 | 0.00 | 0.00 | 0.00 | 42 | 1023.4 |
| 20260906051807 | 74 | 55 | 0.0 | 1.0 | 0.00 | 0.00 | 0.00 | 42 | 1023.4 |
| 20260906051601 | 0 | 0.0 | 0.0 | 0.00 | 0.00 | 0.00 | 1020.6 | ||
| 20260906051306 | 74 | 13 | 0.0 | 0.0 | 0.00 | 0.00 | 0.00 | 43 | 1023.3 |
| 20260906050802 | 74 | 269 | 0.0 | 1.0 | 0.00 | 0.00 | 0.00 | 41 | 1023.1 |
| 20260906050257 | 74 | 336 | 0.0 | 0.0 | 0.00 | 0.00 | 0.00 | 40 | 1023.1 |
| 20260906050057 | 0 | 0.0 | 0.0 | 0.00 | 0.00 | 0.00 | 1020.3 | ||
| 20260906045756 | 75 | 336 | 0.0 | 2.0 | 0.00 | 0.00 | 0.00 | 39 | 1022.9 |
| 20260906045250 | 74 | 44 | 0.0 | 1.0 | 0.00 | 0.00 | 0.00 | 40 | 1023.1 |
| 20260906044747 | 74 | 283 | 0.0 | 1.0 | 0.00 | 0.00 | 0.00 | 41 | 1023.2 |
| 20260906044600 | 0 | 0.0 | 0.0 | 0.00 | 0.00 | 0.00 | 1020.6 | ||
| 20260906044241 | 75 | 303 | 0.0 | 1.0 | 0.00 | 0.00 | 0.00 | 41 | 1023.3 |
| 20260906043737 | 75 | 333 | 0.0 | 0.0 | 0.00 | 0.00 | 0.00 | 38 | 1023.3 |
| 20260906043233 | 76 | 37 | 0.0 | 0.0 | 0.00 | 0.00 | 0.00 | 37 | 1023.2 |
| 20260906043103 | 0 | 0.0 | 0.0 | 0.00 | 0.00 | 0.00 | 1020.7 | ||
| 20260906042733 | 76 | 55 | 0.0 | 0.0 | 0.00 | 0.00 | 0.00 | 37 | 1022.9 |
| 20260906042231 | 76 | 62 | 0.0 | 1.0 | 0.00 | 0.00 | 0.00 | 36 | 1023.1 |
| 20260906041727 | 76 | 112 | 0.0 | 3.0 | 0.00 | 0.00 | 0.00 | 36 | 1022.8 |
| 20260906041558 | 0 | 0.0 | 0.0 | 0.00 | 0.00 | 0.00 | 1020.5 | ||
| 20260906041223 | 75 | 154 | 0.0 | 2.0 | 0.00 | 0.00 | 0.00 | 40 | 1022.9 |
| 20260906040718 | 75 | 111 | 0.0 | 2.0 | 0.00 | 0.00 | 0.00 | 39 | 1022.7 |
| 20260906040213 | 74 | 202 | 0.0 | 2.0 | 0.00 | 0.00 | 0.00 | 40 | 1022.8 |
| 20260906040117 | 0 | 0.0 | 0.0 | 0.00 | 0.00 | 0.00 | 1020.2 | ||
| 20260906035709 | 73 | 103 | 0.0 | 1.0 | 0.00 | 0.00 | 0.00 | 42 | 1022.7 |
| 20260906035205 | 71 | 336 | 1.0 | 2.0 | 0.00 | 0.00 | 0.00 | 44 | 1022.6 |
| 20260906034704 | 71 | 133 | 1.0 | 1.0 | 0.00 | 0.00 | 0.00 | 44 | 1022.2 |
| 20260906034607 | 0 | 0.0 | 0.0 | 0.00 | 0.00 | 0.00 | 1019.7 | ||
| 20260906034159 | 71 | 124 | 0.0 | 0.0 | 0.00 | 0.00 | 0.00 | 42 | 1022.0 |
| 20260906033655 | 72 | 117 | 0.0 | 0.0 | 0.00 | 0.00 | 0.00 | 43 | 1022.0 |
| 20260906033156 | 72 | 142 | 0.0 | 0.0 | 0.00 | 0.00 | 0.00 | 41 | 1022.0 |
| 20260906033111 | 0 | 0.0 | 0.0 | 0.00 | 0.00 | 0.00 | 1019.5 | ||
| 20260906032652 | 72 | 55 | 0.0 | 0.0 | 0.00 | 0.00 | 0.00 | 41 | 1021.9 |
| 20260906032152 | 72 | 55 | 0.0 | 0.0 | 0.00 | 0.00 | 0.00 | 41 | 1021.9 |
| 20260906031647 | 72 | 55 | 0.0 | 0.0 | 0.00 | 0.00 | 0.00 | 40 | 1021.5 |
| 20260906031606 | 0 | 0.0 | 0.0 | 0.00 | 0.00 | 0.00 | 1019.4 | ||
| 20260906031143 | 73 | 50 | 0.0 | 0.0 | 0.00 | 0.00 | 0.00 | 41 | 1021.6 |
| 20260906030642 | 73 | 50 | 0.0 | 0.0 | 0.00 | 0.00 | 0.00 | 40 | 1021.8 |
| 20260906030137 | 73 | 50 | 0.0 | 0.0 | 0.00 | 0.00 | 0.00 | 40 | 1021.4 |
| 20260906030106 | 0 | 0.0 | 0.0 | 0.00 | 0.00 | 0.00 | 1019.1 | ||
| 20260906025637 | 73 | 50 | 0.0 | 0.0 | 0.00 | 0.00 | 0.00 | 40 | 1021.3 |
| 20260906025136 | 74 | 37 | 0.0 | 0.0 | 0.00 | 0.00 | 0.00 | 41 | 1021.4 |
| 20260906024631 | 74 | 37 | 0.0 | 0.0 | 0.00 | 0.00 | 0.00 | 40 | 1021.2 |
| 20260906024601 | 0 | 0.0 | 0.0 | 0.00 | 0.00 | 0.00 | 1018.7 | ||
| 20260906024131 | 74 | 43 | 0.0 | 1.0 | 0.00 | 0.00 | 0.00 | 39 | 1021.0 |
| 20260906023627 | 75 | 50 | 0.0 | 0.0 | 0.00 | 0.00 | 0.00 | 38 | 1021.4 |
| 20260906023126 | 75 | 50 | 0.0 | 0.0 | 0.00 | 0.00 | 0.00 | 38 | 1021.3 |
| 20260906023056 | 0 | 0.0 | 0.0 | 0.00 | 0.00 | 0.00 | 1018.9 | ||
| 20260906022622 | 76 | 75 | 0.0 | 1.0 | 0.00 | 0.00 | 0.00 | 37 | 1021.3 |
| 20260906022117 | 76 | 50 | 0.0 | 0.0 | 0.00 | 0.00 | 0.00 | 36 | 1021.3 |
| 20260906021613 | 77 | 50 | 0.0 | 0.0 | 0.00 | 0.00 | 0.00 | 37 | 1021.4 |
| 20260906021607 | 0 | 0.0 | 0.0 | 0.00 | 0.00 | 0.00 | 1018.9 | ||
| 20260906021112 | 77 | 55 | 0.0 | 0.0 | 0.00 | 0.00 | 0.00 | 34 | 1021.3 |
| 20260906020611 | 77 | 62 | 0.0 | 0.0 | 0.00 | 0.00 | 0.00 | 35 | 1021.3 |
| 20260906020108 | 0 | 0.0 | 0.0 | 0.00 | 0.00 | 0.00 | 1018.6 | ||
| 20260906020106 | 77 | 37 | 0.0 | 0.0 | 0.00 | 0.00 | 0.00 | 35 | 1021.2 |
| 20260906015606 | 77 | 269 | 0.0 | 0.0 | 0.00 | 0.00 | 0.00 | 37 | 1020.9 |
| 20260906015105 | 77 | 306 | 1.0 | 1.0 | 0.00 | 0.00 | 0.00 | 36 | 1020.9 |
| 20260906014601 | 0 | 0.0 | 0.0 | 0.00 | 0.00 | 0.00 | 1018.3 | ||
| 20260906014056 | 78 | 261 | 0.0 | 1.0 | 0.00 | 0.00 | 0.00 | 38 | 1020.9 |
| 20260906013551 | 78 | 322 | 0.0 | 0.0 | 0.00 | 0.00 | 0.00 | 36 | 1020.5 |
| 20260906013110 | 0 | 0.0 | 0.0 | 0.00 | 0.00 | 0.00 | 1018.0 | ||
| 20260906013046 | 78 | 322 | 0.0 | 0.0 | 0.00 | 0.00 | 0.00 | 35 | 1020.3 |
| 20260906012541 | 79 | 322 | 0.0 | 0.0 | 0.00 | 0.00 | 0.00 | 34 | 1020.5 |
| 20260906012041 | 79 | 343 | 0.0 | 0.0 | 0.00 | 0.00 | 0.00 | 34 | 1020.5 |
| 20260906011608 | 0 | 0.0 | 0.0 | 0.00 | 0.00 | 0.00 | 1017.8 | ||
| 20260906011537 | 80 | 343 | 0.0 | 0.0 | 0.00 | 0.00 | 0.00 | 33 | 1020.5 |
| 20260906011037 | 80 | 343 | 0.0 | 0.0 | 0.00 | 0.00 | 0.00 | 33 | 1020.5 |
| 20260906010532 | 82 | 343 | 0.0 | 0.0 | 0.00 | 0.00 | 0.00 | 32 | 1020.2 |
| 20260906010029 | 82 | 343 | 0.0 | 0.0 | 0.00 | 0.00 | 0.00 | 31 | 1020.5 |
| 20260906005527 | 83 | 343 | 0.0 | 0.0 | 0.00 | 0.00 | 0.00 | 30 | 1020.5 |
| 20260906005026 | 84 | 343 | 0.0 | 0.0 | 0.00 | 0.00 | 0.00 | 29 | 1020.6 |
| 20260906004604 | 0 | 0.0 | 0.0 | 0.00 | 0.00 | 0.00 | 1018.0 | ||
| 20260906004526 | 84 | 343 | 0.0 | 0.0 | 0.00 | 0.00 | 0.00 | 28 | 1020.3 |
| 20260906004021 | 85 | 343 | 0.0 | 1.0 | 0.00 | 0.00 | 0.00 | 28 | 1020.6 |
| 20260906003517 | 86 | 44 | 0.0 | 1.0 | 0.00 | 0.00 | 0.00 | 29 | 1020.5 |
| 20260906003106 | 0 | 0.0 | 0.0 | 0.00 | 0.00 | 0.00 | 1018.0 | ||
| 20260906003013 | 87 | 53 | 0.0 | 0.0 | 0.00 | 0.00 | 0.00 | 25 | 1020.5 |
| 20260906002513 | 87 | 329 | 0.0 | 0.0 | 0.00 | 0.00 | 0.00 | 26 | 1020.5 |
| 20260906002008 | 87 | 0 | 0.0 | 0.0 | 0.00 | 0.00 | 0.00 | 24 | 1020.5 |
| 20260906001555 | 0 | 0.0 | 0.0 | 0.00 | 0.00 | 0.00 | 1018.0 | ||
| 20260906001504 | 88 | 37 | 0.0 | 0.0 | 0.00 | 0.00 | 0.00 | 27 | 1020.5 |
| 20260906000957 | 88 | 28 | 1.0 | 1.0 | 0.00 | 0.00 | 0.00 | 27 | 1020.3 |
| 20260906000455 | 89 | 298 | 0.0 | 1.0 | 0.00 | 0.00 | 0.00 | 27 | 1020.1 |
| 20260906000106 | 0 | 0.0 | 0.0 | 0.00 | 0.00 | 0.00 | 1017.8 | ||
| 20260905235948 | 89 | 201 | 0.0 | 2.0 | 0.00 | 0.00 | 0.00 | 26 | 1020.2 |
| 20260905235448 | 89 | 10 | 0.0 | 2.0 | 0.00 | 0.00 | 0.00 | 24 | 1020.3 |
| 20260905234943 | 89 | 56 | 1.0 | 1.0 | 0.00 | 0.00 | 0.00 | 24 | 1020.1 |
| 20260905234558 | 0 | 0.0 | 0.0 | 0.00 | 0.00 | 0.00 | 1017.7 | ||
| 20260905234439 | 90 | 42 | 1.0 | 2.0 | 0.00 | 0.00 | 0.00 | 26 | 1020.2 |
| 20260905233938 | 91 | 333 | 0.0 | 1.0 | 0.00 | 0.00 | 0.00 | 23 | 1020.2 |
| 20260905233434 | 93 | 326 | 0.0 | 1.0 | 0.00 | 0.00 | 0.00 | 22 | 1020.2 |
| 20260905233106 | 0 | 0.0 | 0.0 | 0.00 | 0.00 | 0.00 | 1017.7 | ||
| 20260905232932 | 93 | 222 | 1.0 | 3.0 | 0.00 | 0.00 | 0.00 | 24 | 1020.2 |
| 20260905232429 | 94 | 247 | 2.0 | 3.0 | 0.00 | 0.00 | 0.00 | 21 | 1020.3 |
| 20260905231924 | 94 | 215 | 0.0 | 2.0 | 0.00 | 0.00 | 0.00 | 24 | 1020.2 |
| 20260905231606 | 0 | 0.0 | 0.0 | 0.00 | 0.00 | 0.00 | 1017.7 | ||
| 20260905231420 | 94 | 348 | 2.0 | 2.0 | 0.00 | 0.00 | 0.00 | 22 | 1020.1 |
| 20260905230916 | 94 | 241 | 1.0 | 3.0 | 0.00 | 0.00 | 0.00 | 24 | 1020.0 |
| 20260905230414 | 93 | 344 | 0.0 | 1.0 | 0.00 | 0.00 | 0.00 | 22 | 1020.2 |
| 20260905230103 | 0 | 0.0 | 0.0 | 0.00 | 0.00 | 0.00 | 1017.8 | ||
| 20260905225913 | 93 | 38 | 1.0 | 2.0 | 0.00 | 0.00 | 0.00 | 23 | 1020.0 |
| 20260905225409 | 95 | 182 | 1.0 | 4.0 | 0.00 | 0.00 | 0.00 | 24 | 1020.1 |
| 20260905224903 | 94 | 326 | 0.0 | 1.0 | 0.00 | 0.00 | 0.00 | 21 | 1020.2 |
| 20260905224556 | 0 | 0.0 | 0.0 | 0.00 | 0.00 | 0.00 | 1017.7 | ||
| 20260905224359 | 94 | 211 | 2.0 | 5.0 | 0.00 | 0.00 | 0.00 | 21 | 1020.1 |
| 20260905223854 | 94 | 44 | 1.0 | 2.0 | 0.00 | 0.00 | 0.00 | 24 | 1020.2 |
| 20260905223352 | 93 | 75 | 2.0 | 2.0 | 0.00 | 0.00 | 0.00 | 24 | 1020.1 |
| 20260905223058 | 0 | 0.0 | 0.0 | 0.00 | 0.00 | 0.00 | 1017.8 | ||
| 20260905222851 | 94 | 263 | 0.0 | 2.0 | 0.00 | 0.00 | 0.00 | 24 | 1020.1 |
| 20260905222350 | 94 | 285 | 1.0 | 2.0 | 0.00 | 0.00 | 0.00 | 23 | 1020.3 |
| 20260905221847 | 95 | 222 | 0.0 | 2.0 | 0.00 | 0.00 | 0.00 | 25 | 1020.3 |
| 20260905221606 | 0 | 0.0 | 0.0 | 0.00 | 0.00 | 0.00 | 1017.8 | ||
| 20260905221343 | 96 | 343 | 0.0 | 3.0 | 0.00 | 0.00 | 0.00 | 21 | 1020.2 |
| 20260905220839 | 95 | 307 | 0.0 | 2.0 | 0.00 | 0.00 | 0.00 | 22 | 1020.2 |
| 20260905220335 | 96 | 309 | 0.0 | 3.0 | 0.00 | 0.00 | 0.00 | 21 | 1020.2 |
| 20260905215834 | 96 | 255 | 2.0 | 3.0 | 0.00 | 0.00 | 0.00 | 21 | 1020.3 |